Weather History for Wiscasset, ME

Change the Weather History Date:

Saturday, March 16, 2013

  Actual Average Record
Temperature  
Mean Temperature 28 °F -  
Max Temperature 37 °F 36 °F 44 °F (2001)
Min Temperature 21 °F 20 °F 12 °F (2003)
Degree Days  
Heating Degree Days 36    
Moisture  
Dew Point 10 °F    
Average Humidity 48    
Maximum Humidity 78    
Minimum Humidity 27    
Precipitation  
Precipitation 0.00 in - - ()
Sea Level Pressure  
Sea Level Pressure 29.78 in    
Wind  
Wind Speed 2 mph (West)    
Max Wind Speed 9 mph    
Max Gust Speed 17 mph    
Visibility 10 miles    
Events      
Averages and records for this station are not official NWS values.
T = Trace of Precipitation, MM = Missing Value Source: NWS Daily Summary

Daily Weather History Graph

Daily Weather History Graph

Search for Another Location

Airport:

Trip Planner

Search our weather history database for the weather conditions in past years. The results will help you decide how hot, cold, wet, or windy it might be!

Date:

Astronomy

Mar. 16, 2013 Rise Set
Actual Time 6:48 AM EDT 6:46 PM EDT
Civil Twilight 6:20 AM EDT 7:15 PM EDT
Nautical Twilight 5:46 AM EDT 7:48 PM EDT
Astronomical Twilight 5:12 AM EDT 8:23 PM EDT
Moon 9:06 AM EDT (3/16) No Moon Set
Length of Visible Light 12h 55m
Length of Day
11h 57m
Waxing Crescent, 23% of the Moon is Illuminated
Mar 16
Waxing Crescent
Mar 19
First Quarter
Mar 27
Full
Apr 3
Last Quarter
Apr 10
New

Hourly Weather History & Observations

Time (EDT) Temp. Windchill Dew Point Humidity Pressure Visibility Wind Dir Wind Speed Gust Speed Precip Events Conditions
12:53 AM 23.0 °F - 17.1 °F 78% 29.63 in 10.0 mi Calm Calm - N/A   Overcast
1:53 AM 26.1 °F 21.9 °F 18.0 °F 71% 29.65 in 10.0 mi West 3.5 mph - N/A   Partly Cloudy
2:53 AM 27.0 °F 20.5 °F 16.0 °F 63% 29.67 in 10.0 mi WNW 5.8 mph - N/A   Clear
3:53 AM 27.0 °F 20.5 °F 15.1 °F 61% 29.69 in 10.0 mi Variable 5.8 mph - N/A   Clear
4:53 AM 26.1 °F - 16.0 °F 66% 29.73 in 10.0 mi Calm Calm - N/A   Scattered Clouds
5:53 AM 24.1 °F - 15.1 °F 69% 29.75 in 10.0 mi Calm Calm - N/A   Clear
6:53 AM 21.0 °F - 14.0 °F 74% 29.78 in 10.0 mi Calm Calm - N/A   Clear
7:53 AM 25.0 °F - 15.1 °F 66% 29.81 in 10.0 mi Calm Calm - N/A   Clear
8:53 AM 28.0 °F 24.2 °F 12.0 °F 51% 29.81 in 10.0 mi Variable 3.5 mph - N/A   Clear
9:53 AM 30.0 °F 25.2 °F 9.0 °F 41% 29.82 in 10.0 mi Variable 4.6 mph - N/A   Partly Cloudy
10:53 AM 30.0 °F 24.1 °F 7.0 °F 38% 29.81 in 10.0 mi Variable 5.8 mph - N/A   Scattered Clouds
11:53 AM 33.1 °F 25.5 °F 7.0 °F 34% 29.81 in 10.0 mi WNW 9.2 mph 17.3 mph N/A   Scattered Clouds
12:53 PM 32.0 °F - 6.1 °F 34% 29.80 in 10.0 mi Calm Calm - N/A   Scattered Clouds
1:53 PM 34.0 °F - 8.1 °F 34% 29.78 in 10.0 mi Calm Calm - N/A   Mostly Cloudy
2:53 PM 36.0 °F 31.1 °F 6.1 °F 29% 29.78 in 10.0 mi Variable 5.8 mph - N/A   Mostly Cloudy
3:53 PM 35.1 °F 30.1 °F 3.9 °F 27% 29.77 in 10.0 mi Variable 5.8 mph 16.1 mph N/A   Scattered Clouds
4:53 PM 35.1 °F 32.2 °F 5.0 °F 28% 29.78 in 10.0 mi Variable 3.5 mph - N/A   Mostly Cloudy
5:53 PM 34.0 °F 31.0 °F 16.0 °F 48% 29.78 in 10.0 mi SW 3.5 mph - N/A   Mostly Cloudy
6:53 PM 32.0 °F 28.7 °F 6.1 °F 34% 29.80 in 10.0 mi Variable 3.5 mph - N/A   Overcast
7:53 PM 30.0 °F - 7.0 °F 38% 29.83 in 10.0 mi Calm Calm - N/A   Mostly Cloudy
8:53 PM 30.0 °F 25.2 °F 6.1 °F 36% 29.85 in 10.0 mi Variable 4.6 mph - N/A   Mostly Cloudy
9:53 PM 28.9 °F - 6.1 °F 38% 29.87 in 10.0 mi Calm Calm - N/A   Scattered Clouds
10:53 PM 28.0 °F - 7.0 °F 41% 29.89 in 10.0 mi Calm Calm - N/A   Mostly Cloudy
11:53 PM 27.0 °F - 7.0 °F 43% 29.91 in 10.0 mi Calm Calm - N/A   Scattered Clouds